User: anonymous   Login
Location: Castro Valley
(37.6940°N, 122.0850°W)
Time: 21:10:44
(UTC-07:00)
Language:

PANSAT - Orbit

View from above orbital plane
View from above orbital plane
View from above satellite
View from above satellite

Ground track
Ground track

The orbit data is extracted from the following two-line orbital elements,

1 25520U 98064B   15123.71826295  .00002818  00000-0  98216-4 0  9992
2 25520 028.4573 218.7989 0004849 049.8387 081.8201 15.26033548915601
Epoch (UTC): 03 May 2015 17:14:17
Eccentricity: 0.0004849
inclination: 28.4573°
perigee height: 484 km
apogee height: 491 km
right ascension of ascending node: 218.7989°
argument of perigee: 49.8387°
revolutions per day: 15.26033548
mean anomaly at epoch: 81.8201°
orbit number at epoch: 91560

The dashed part of the orbit path shows where the satellite is in the earth's shadow,  

DLR